Welcome to the New NWS' Forecast!
Most changes are behind the scenes, but click here for differences you might notice.

Regional Weather Roundup (RWR)

Issued by National Weather Service (NWS)

                            
271 
ASUS46 KSEW 160310
RWRWA 

WASHINGTON REGIONAL WEATHER ROUNDUP
NATIONAL WEATHER SERVICE SEATTLE WA
800 PM PDT SUN JUL 15 2018

NOTE:"FAIR" INDICATES FEW OR NO CLOUDS BELOW 12,000 FEET WITH NO 
SIGNIFICANT WEATHER AND/OR OBSTRUCTIONS TO VISIBILITY.

WAZ507-509-555>559-160400-
SEATTLE, TACOMA, EVERETT, AND VICINITY
  
CITY           SKY/WX    TMP DP  RH WIND       PRES   REMARKS
EVERETT        CLEAR     80  51  36 NW7       29.97S                  
BOEING FIELD   CLEAR     83  48  29 NW8       29.93R                  
RENTON         CLEAR     86  55  34 NW13      29.92R                  
SEATAC AIRPORT PTCLDY    86  50  28 N10       29.95R                  
JBLM-MCCHORD   CLEAR     86  52  30 NE8       29.94R                  
PUYALLUP       FAIR      84  45  24 VRB5      29.95S                  
BREMERTON      CLEAR     84  45  25 NE13      29.95S                  
JBLM-FT LEWIS  CLEAR     90  52  27 N10       29.93R                  
TACOMA NARROWS CLEAR     83  46  27 N14       29.94R                  
$$
 
WAZ001-503-506-510-514-515-160400-
NORTH INTERIOR
  
CITY           SKY/WX    TMP DP  RH WIND       PRES   REMARKS
BELLINGHAM     CLEAR     76  54  46 CALM      29.95S                  
FRIDAY HARBOR  CLEAR     76  50  40 W5        29.97S                  
EASTSOUND      CLEAR     75  55  50 CALM      29.95S                  
PORT ANGELES   CLEAR     72  51  47 CALM      29.99F                  
EDIZ HOOK      FAIR      62  51  68 W14G25    29.98S                  
PORT TOWNSEND  FAIR      77  46  33 NW10      29.96S                  
NAS WHIDBEY    PTCLDY    66  53  63 W6        30.00S                  
ARLINGTON      CLEAR     82  47  29 NW9       29.94S                  
BURLINGTON     CLEAR     73  50  43 W9        29.95S                  
$$
 
WAZ020-022-039-040-504-511-512-160400-
SOUTHWEST INTERIOR
  
CITY           SKY/WX    TMP DP  RH WIND       PRES   REMARKS
SHELTON        CLEAR     90  51  26 E8        29.91R                  
OLYMPIA        CLEAR     89  47  23 N8        29.93R                  
CHEHALIS       FAIR      88  57  35 NW6       29.92R                  
KELSO          CLEAR     84  56  38 VRB3      29.92R                  
VANCOUVER      PTCLDY    93  57  29 NW10      29.87R HX  91           
SCAPPOOSE, OR  PTCLDY    89  55  31 NW9G16    29.87R                  
PORTLAND, OR   PTCLDY    93  57  29 NW12      29.87R HX  91           
$$
 
WAZ021-516-517-160400-
WASHINGTON COAST
  
CITY           SKY/WX    TMP DP  RH WIND       PRES   REMARKS
FORKS          SUNNY     73  43  33 N8        29.98S                  
HOQUIAM        CLEAR     67  58  72 SW14      29.96S                  
ASTORIA, OR    CLEAR     65  57  75 SW5       29.99R                  
$$
 
WAZ019-023-024-040-567>569-160400-
CASCADE MOUNTAINS AND COLUMBIA GORGE
  
CITY           SKY/WX    TMP DP  RH WIND       PRES   REMARKS
STAMPEDE PASS  NOT AVBL                                               
TROUTDALE, OR  PTCLDY    91  55  29 NW5       29.86R                  
HOOD RIVER, OR PTCLDY    90  52  27 CALM      29.88R                  
THE DALLES, OR PTCLDY    95  52  23 N10       29.83R HX  92           
$$

WAZ026-027-041>044-520-521-160400-
EAST SLOPES
  
CITY           SKY/WX    TMP DP  RH WIND       PRES   REMARKS
OMAK           CLEAR     92  42  17 S3        29.90F                  
WENATCHEE      CLEAR     88  41  19 E9        29.90S                  
ELLENSBURG     CLEAR     90  56  31 NE5       29.93F                  
YAKIMA         PTCLDY    90  51  26 S6        29.90S                  
SUNNYSIDE ARPT PTCLDY    84  62  46 CALM      29.88S                  
YAKIMA TC        N/A     93  36  13 S8        29.89F                  
$$

WAZ028-034-035-160400-
COLUMBIA BASIN
  
CITY           SKY/WX    TMP DP  RH WIND       PRES   REMARKS
EPHRATA        CLEAR     92  27   9 SW5       29.91S                  
MOSES LAKE     PTCLDY    93  35  13 W7        29.91F                  
PASCO          PTCLDY    87  57  35 N6        29.86S                  
RICHLAND ARPT  PTCLDY    95  36  12 CALM      29.85F HX  90           
HERMISTON, OR  PTCLDY    94  38  14 CALM      29.86S                  
$$

WAZ036>038-160400-
NORTHEAST WASHINGTON
  
CITY           SKY/WX    TMP DP  RH WIND       PRES   REMARKS
SPOKANE GEIGER PTCLDY    88  28  11 NW5       30.00S                  
SPOKANE FELTS  CLEAR     84  36  18 N3        29.97S                  
FAIRCHILD AFB  CLEAR     86  36  16 CALM      30.01S                  
COEURDALENE,ID PTCLDY    81  48  31 W3        30.00S                  
DEER PARK      CLEAR     84  42  22 CALM      29.99S                  
$$

WAZ029>033-160400-
SOUTHEAST WASHINGTON
  
CITY           SKY/WX    TMP DP  RH WIND       PRES   REMARKS
PULLMAN        MOCLDY    81  46  29 NE6       30.02F                  
LEWISTON, ID   CLOUDY    89  38  16 E7        29.93S                  
WALLA WALLA    MOCLDY    91  43  18 SE6       29.90S                  
PENDLETON, OR  MOCLDY    92  33  12 NE8       29.92R                  
$$